World > North America > United States > Missouri > Triplett

Triplett, MO Hourly Weather Conditions

Feedback E-mail the Weather

Quick WX

Triplett, MO Weather Maps

°F °C°F °C
Triplett Weather Map
UTC Time: 2/9/2023, 05:12
Your Time:

Triplett, MO Regional Weather

Expires:202302090600;;044746
ASUS43 KLSX 090510
RWRMO 

WEATHER SUMMARY FOR MISSOURI
NATIONAL WEATHER SERVICE SPRINGFIELD MO
1100 PM CST WED FEB 08 2023

NOTE: "FAIR" INDICATES FEW OR NO CLOUDS BELOW 12,000 FEET WITH NO
       SIGNIFICANT WEATHER AND/OR OBSTRUCTIONS TO VISIBILITY.
       CURRENT SKY AND/OR WEATHER CONDITIONS ARE NOT AVAILABLE FOR
       CHILLICOTHE AND FARMINGTON.


MOZ032>034-039>042-045>050-055>058-069>072-090600-
...CENTRAL MISSOURI...  
  
CITY           SKY/WX    TMP DP  RH WIND       PRES   REMARKS
COLUMBIA       LGT RAIN  40  39  97 E15       29.70F                  
JEFFERSON CITY RAIN      44  40  85 E14G22    29.70F FOG              
ROLLA          RAIN      44  43  96 E13       29.67F FOG              
SEDALIA        CLOUDY    39  36  89 E10       29.71F FOG              
WHITEMAN AFB   DRIZZLE   37  36  96 NE12      29.64F FOG     WCI  30  
WARRENSBURG    DRIZZLE   34  34 100 N10G17    29.68F WCI  26          
OSAGE BEACH    LGT RAIN  43  42  97 E12         N/A                   
               
$$

SKY/WX - Weather  TMP - Temperature  DP - Dew Point  RH - Humidity
WIND - Wind Direction/Speed PRES - Barometric Pressure VSB - Visibility
WCI - Wind Chill Index E13G22 Wind - East Wind 13 mph/Gusts of 22 mph

Trending Headlines

Trending Entertainment Headlines

Triplett Radar Loop

Use the map search tool if you want to place a location marker on the radar map...

Triplett Quick Facts

National Two Day Weather Forecast


E-mail the Triplett Weather Forecast

Voice your opinion or tell us about page issues...